,,,PA_Meas_PMT16A,,PR_Meas_QMR101_102,,RH_Meas_QMH101,,SR_Meas_QMS101,,TA_Meas_QMH101,,GenWind,,GenWind,
date,time,status,PA,status,PR,status,RH,status,SR,status,TA,status,DirAvg,status,SpdAvg,
2012-04-12, 00:00:05,VALID,1003.81,VALID,0,VALID,88.0525,VALID,0,VALID,25.4753,VALID,7,VALID,0.00117188,
2012-04-12, 00:01:05,VALID,1003.85,VALID,0,VALID,88.1517,VALID,0,VALID,25.4558,VALID,7,VALID,0.0972656,
2012-04-12, 00:02:05,VALID,1003.84,VALID,0,VALID,88.3653,VALID,0,VALID,25.4149,VALID,249,VALID,0.805469,
2012-04-12, 00:03:05,VALID,1003.83,VALID,0,VALID,88.4645,VALID,0,VALID,25.4169,VALID,249,VALID,0.129297,
2012-04-12, 00:04:05,VALID,1003.83,VALID,0,VALID,88.6323,VALID,0,VALID,25.3974,VALID,249,VALID,0,
2012-04-12, 00:05:05,VALID,1003.83,VALID,0,VALID,88.6476,VALID,0,VALID,25.3779,VALID,249,VALID,0,
2012-04-12, 00:06:05,VALID,1003.83,VALID,0,VALID,88.7239,VALID,0,VALID,25.3584,VALID,249,VALID,0.00429688,
2012-04-12, 00:07:05,VALID,1003.8,VALID,0,VALID,88.8917,VALID,0,VALID,25.2981,VALID,249,VALID,0.223047,
2012-04-12, 00:08:05,VALID,1003.79,VALID,0,VALID,89.0748,VALID,0,VALID,25.3,VALID,249,VALID,0.337891,
2012-04-12, 00:09:05,VALID,1003.78,VALID,0,VALID,89.2732,VALID,0,VALID,25.3,VALID,281,VALID,0.369922,
2012-04-12, 00:10:05,VALID,1003.77,VALID,0,VALID,89.174,VALID,0,VALID,25.3214,VALID,306,VALID,0.220703,
2012-04-12, 00:11:05,VALID,1003.74,VALID,0,VALID,89.2426,VALID,0,VALID,25.3,VALID,348,VALID,0.479688,
2012-04-12, 00:12:05,VALID,1003.71,VALID,0,VALID,89.3037,VALID,0,VALID,25.2416,VALID,4,VALID,0.588281,
2012-04-12, 00:13:05,VALID,1003.72,VALID,0,VALID,89.5325,VALID,0,VALID,25.2007,VALID,16,VALID,0.625,
2012-04-12, 00:14:05,VALID,1003.68,VALID,0,VALID,89.3723,VALID,0,VALID,25.1442,VALID,16,VALID,0.537109,
2012-04-12, 00:15:05,VALID,1003.68,VALID,0,VALID,89.647,VALID,0,VALID,25.0663,VALID,16,VALID,0.560156,
2012-04-12, 00:16:05,VALID,1003.66,VALID,0,VALID,89.9369,VALID,0,VALID,25.006,VALID,16,VALID,0,
2012-04-12, 00:17:05,VALID,1003.67,VALID,0,VALID,90.2344,VALID,0,VALID,24.9885,VALID,16,VALID,0,
2012-04-12, 00:18:05,VALID,1003.68,VALID,0,VALID,90.448,VALID,0,VALID,24.969,VALID,5,VALID,0.609766,
2012-04-12, 00:19:05,VALID,1003.68,VALID,0,VALID,90.7379,VALID,0,VALID,24.9087,VALID,3,VALID,0.794141,
2012-04-12, 00:20:05,VALID,1003.67,VALID,0,VALID,90.776,VALID,0,VALID,24.9106,VALID,1,VALID,0.477344,
2012-04-12, 00:21:05,VALID,1003.69,VALID,0,VALID,90.9591,VALID,0,VALID,24.9125,VALID,1,VALID,0.480469,
2012-04-12, 00:22:05,VALID,1003.69,VALID,0,VALID,91.0202,VALID,0,VALID,24.8522,VALID,1,VALID,0.363281,
2012-04-12, 00:23:05,VALID,1003.69,VALID,0,VALID,91.1422,VALID,0,VALID,24.8327,VALID,1,VALID,0.323828,
2012-04-12, 00:24:05,VALID,1003.67,VALID,0,VALID,91.2567,VALID,0,VALID,24.7919,VALID,1,VALID,0.0894531,
2012-04-12, 00:25:05,VALID,1003.7,VALID,0,VALID,91.3482,VALID,0,VALID,24.7937,VALID,1,VALID,0,
2012-04-12, 00:26:05,VALID,1003.67,VALID,0,VALID,91.4703,VALID,0,VALID,24.7956,VALID,1,VALID,0,
2012-04-12, 00:27:05,VALID,1003.65,VALID,0,VALID,91.5771,VALID,0,VALID,24.7937,VALID,1,VALID,0,
2012-04-12, 00:28:05,VALID,1003.65,VALID,0,VALID,91.6686,VALID,0,VALID,24.7743,VALID,1,VALID,0,
2012-04-12, 00:29:05,VALID,1003.65,VALID,0,VALID,91.7602,VALID,0,VALID,24.7743,VALID,360,VALID,0,
2012-04-12, 00:30:05,VALID,1003.64,VALID,0,VALID,91.7983,VALID,0,VALID,24.7743,VALID,360,VALID,0,
2012-04-12, 00:31:05,VALID,1003.61,VALID,0,VALID,91.867,VALID,0,VALID,24.7743,VALID,360,VALID,0,
2012-04-12, 00:32:05,VALID,1003.56,VALID,0,VALID,91.928,VALID,0,VALID,24.7919,VALID,1,VALID,0,
2012-04-12, 00:33:05,VALID,1003.54,VALID,0,VALID,92.0501,VALID,0,VALID,24.8346,VALID,303,VALID,0.288672,
2012-04-12, 00:34:05,VALID,1003.5,VALID,0,VALID,92.0043,VALID,0,VALID,24.8503,VALID,305,VALID,0.0554687,
2012-04-12, 00:35:05,VALID,1003.49,VALID,0,VALID,91.9356,VALID,0,VALID,24.8911,VALID,305,VALID,0,
2012-04-12, 00:36:05,VALID,1003.48,VALID,0,VALID,91.8365,VALID,0,VALID,24.93,VALID,305,VALID,0,
2012-04-12, 00:37:05,VALID,1003.45,VALID,0,VALID,91.7449,VALID,0,VALID,24.93,VALID,305,VALID,0.212891,
2012-04-12, 00:38:05,VALID,1003.46,VALID,0,VALID,91.6763,VALID,0,VALID,24.9495,VALID,305,VALID,0.0121094,
2012-04-12, 00:39:05,VALID,1003.44,VALID,0,VALID,91.6229,VALID,0,VALID,24.9671,VALID,305,VALID,0.269141,
2012-04-12, 00:40:05,VALID,1003.41,VALID,0,VALID,91.5771,VALID,0,VALID,24.9866,VALID,305,VALID,0.122656,
2012-04-12, 00:41:05,VALID,1003.4,VALID,0,VALID,91.3864,VALID,0.0815089,VALID,24.9866,VALID,305,VALID,0,
2012-04-12, 00:42:05,VALID,1003.41,VALID,0,VALID,91.2109,VALID,0,VALID,24.9866,VALID,305,VALID,0,
2012-04-12, 00:43:05,VALID,1003.41,VALID,0,VALID,91.2567,VALID,0.0815089,VALID,24.9671,VALID,306,VALID,0.363672,
2012-04-12, 00:44:05,VALID,1003.4,VALID,0,VALID,91.2948,VALID,0,VALID,24.9671,VALID,307,VALID,0.464453,
2012-04-12, 00:45:05,VALID,1003.38,VALID,0,VALID,91.3253,VALID,0,VALID,24.9476,VALID,307,VALID,0.287109,
2012-04-12, 00:46:05,VALID,1003.36,VALID,0,VALID,91.4703,VALID,0,VALID,24.9495,VALID,307,VALID,0.000390625,
2012-04-12, 00:47:05,VALID,1003.37,VALID,0,VALID,91.5695,VALID,0.0815089,VALID,24.9476,VALID,298,VALID,0.728516,
2012-04-12, 00:48:05,VALID,1003.34,VALID,0,VALID,91.661,VALID,0.0815089,VALID,24.9671,VALID,295,VALID,0.755078,
2012-04-12, 00:49:05,VALID,1003.35,VALID,0,VALID,91.5771,VALID,0.0815089,VALID,25.0255,VALID,308,VALID,0.602344,
2012-04-12, 00:50:05,VALID,1003.34,VALID,0,VALID,91.394,VALID,0,VALID,25.045,VALID,307,VALID,0.209375,
2012-04-12, 00:51:05,VALID,1003.36,VALID,0,VALID,91.1804,VALID,0.0815089,VALID,25.0839,VALID,338,VALID,0.475,
2012-04-12, 00:52:05,VALID,1003.34,VALID,0,VALID,90.921,VALID,0.0815089,VALID,25.1423,VALID,296,VALID,0.759375,
2012-04-12, 00:53:05,VALID,1003.37,VALID,0,VALID,90.5624,VALID,0,VALID,25.1599,VALID,290,VALID,1.3332,
2012-04-12, 00:54:05,VALID,1003.38,VALID,0,VALID,90.3488,VALID,0,VALID,25.2027,VALID,307,VALID,0.771094,
2012-04-12, 00:55:05,VALID,1003.39,VALID,0,VALID,90.1276,VALID,0,VALID,25.2416,VALID,299,VALID,0.2375,
2012-04-12, 00:56:05,VALID,1003.4,VALID,0,VALID,90.0284,VALID,0,VALID,25.2611,VALID,299,VALID,0.269531,
2012-04-12, 00:57:05,VALID,1003.41,VALID,0,VALID,89.9979,VALID,0,VALID,25.2611,VALID,299,VALID,0.107813,
2012-04-12, 00:58:05,VALID,1003.42,VALID,0,VALID,89.975,VALID,0,VALID,25.2611,VALID,272,VALID,0.55,
2012-04-12, 00:59:05,VALID,1003.44,VALID,0,VALID,90.0284,VALID,0,VALID,25.2611,VALID,212,VALID,0.480859,
2012-04-12, 01:00:05,VALID,1003.42,VALID,0,VALID,90.0589,VALID,0,VALID,25.2416,VALID,212,VALID,0.201953,
2012-04-12, 01:01:05,VALID,1003.39,VALID,0,VALID,90.0589,VALID,0,VALID,25.2416,VALID,212,VALID,0,
2012-04-12, 01:02:05,VALID,1003.42,VALID,0,VALID,90.0513,VALID,0,VALID,25.2416,VALID,212,VALID,0.0386719,
2012-04-12, 01:03:05,VALID,1003.44,VALID,0,VALID,90.0971,VALID,0,VALID,25.2611,VALID,212,VALID,0.385938,
2012-04-12, 01:04:05,VALID,1003.49,VALID,0,VALID,90.1734,VALID,0,VALID,25.263,VALID,212,VALID,0.792969,
2012-04-12, 01:05:05,VALID,1003.54,VALID,0,VALID,90.242,VALID,0,VALID,25.2416,VALID,211,VALID,0.842578,
2012-04-12, 01:06:05,VALID,1003.54,VALID,0,VALID,90.2573,VALID,0,VALID,25.2416,VALID,196,VALID,0.551562,
2012-04-12, 01:07:05,VALID,1003.59,VALID,0,VALID,90.1352,VALID,0,VALID,25.2611,VALID,218,VALID,0.874609,
2012-04-12, 01:08:05,VALID,1003.66,VALID,0,VALID,89.2121,VALID,0,VALID,25.2806,VALID,273,VALID,2.35703,
2012-04-12, 01:09:05,VALID,1003.63,VALID,0,VALID,86.9921,VALID,0,VALID,25.2611,VALID,249,VALID,1.94375,
2012-04-12, 01:10:05,VALID,1003.58,VALID,0,VALID,85.7028,VALID,0,VALID,25.2416,VALID,239,VALID,1.8707,
2012-04-12, 01:11:05,VALID,1003.57,VALID,0,VALID,85.8096,VALID,0,VALID,25.2416,VALID,244,VALID,1.53867,
2012-04-12, 01:12:05,VALID,1003.58,VALID,0,VALID,85.8173,VALID,0,VALID,25.2202,VALID,212,VALID,0.548047,
2012-04-12, 01:13:05,VALID,1003.63,VALID,0,VALID,85.6037,VALID,0,VALID,25.2202,VALID,283,VALID,2.23789,
2012-04-12, 01:14:05,VALID,1003.58,VALID,0,VALID,85.8783,VALID,0,VALID,25.1618,VALID,260,VALID,1.54336,
2012-04-12, 01:15:05,VALID,1003.58,VALID,0,VALID,86.1911,VALID,0,VALID,25.1442,VALID,235,VALID,1.45859,
2012-04-12, 01:16:05,VALID,1003.6,VALID,0,VALID,86.2369,VALID,0,VALID,25.0858,VALID,277,VALID,1.63711,
2012-04-12, 01:17:05,VALID,1003.61,VALID,0,VALID,86.4657,VALID,0,VALID,25.0644,VALID,279,VALID,1.125,
2012-04-12, 01:18:05,VALID,1003.62,VALID,0,VALID,86.6183,VALID,0,VALID,25.0877,VALID,292,VALID,1.31055,
2012-04-12, 01:19:05,VALID,1003.59,VALID,0,VALID,86.5573,VALID,0,VALID,25.0469,VALID,299,VALID,1.77813,
2012-04-12, 01:20:05,VALID,1003.62,VALID,0,VALID,86.748,VALID,0,VALID,25.0469,VALID,283,VALID,1.37539,
2012-04-12, 01:21:05,VALID,1003.65,VALID,0,VALID,86.7175,VALID,0,VALID,25.0274,VALID,311,VALID,1.62148,
2012-04-12, 01:22:05,VALID,1003.66,VALID,0,VALID,86.5649,VALID,0,VALID,25.0469,VALID,267,VALID,1.01367,
2012-04-12, 01:23:05,VALID,1003.65,VALID,0,VALID,86.4886,VALID,0,VALID,25.0663,VALID,287,VALID,1.48359,
2012-04-12, 01:24:05,VALID,1003.68,VALID,0,VALID,86.3818,VALID,0,VALID,25.0877,VALID,245,VALID,1.96836,
2012-04-12, 01:25:05,VALID,1003.64,VALID,0,VALID,86.4047,VALID,0,VALID,25.1053,VALID,276,VALID,1.46094,
2012-04-12, 01:26:05,VALID,1003.6,VALID,0,VALID,85.9927,VALID,0,VALID,25.1248,VALID,284,VALID,1.79141,
2012-04-12, 01:27:05,VALID,1003.61,VALID,0,VALID,85.5808,VALID,0,VALID,25.2027,VALID,284,VALID,2.02813,
2012-04-12, 01:28:05,VALID,1003.61,VALID,0,VALID,85.4663,VALID,0,VALID,25.2416,VALID,301,VALID,1.37539,
2012-04-12, 01:29:05,VALID,1003.62,VALID,0,VALID,85.4358,VALID,0,VALID,25.3,VALID,284,VALID,1.53477,
2012-04-12, 01:30:05,VALID,1003.6,VALID,0,VALID,85.2451,VALID,0,VALID,25.339,VALID,302,VALID,1.56992,
2012-04-12, 01:31:05,VALID,1003.57,VALID,0,VALID,85.3061,VALID,0,VALID,25.3779,VALID,272,VALID,0.810547,
2012-04-12, 01:32:05,VALID,1003.57,VALID,0,VALID,84.7874,VALID,0,VALID,25.4169,VALID,298,VALID,1.30156,
2012-04-12, 01:33:05,VALID,1003.5,VALID,0,VALID,83.5286,VALID,0,VALID,25.4363,VALID,356,VALID,1.18555,
2012-04-12, 01:34:05,VALID,1003.55,VALID,0,VALID,82.9793,VALID,0,VALID,25.4753,VALID,207,VALID,0.715234,
2012-04-12, 01:35:05,VALID,1003.52,VALID,0,VALID,82.5216,VALID,0,VALID,25.5337,VALID,328,VALID,0.859375,
2012-04-12, 01:36:05,VALID,1003.5,VALID,0,VALID,82.1325,VALID,0,VALID,25.5941,VALID,280,VALID,1.02891,
2012-04-12, 01:37:05,VALID,1003.45,VALID,0,VALID,81.568,VALID,0,VALID,25.6525,VALID,239,VALID,1.32305,
2012-04-12, 01:38:05,VALID,1003.43,VALID,0,VALID,81.301,VALID,0,VALID,25.67,VALID,321,VALID,0.876562,
2012-04-12, 01:39:05,VALID,1003.38,VALID,0,VALID,81.1484,VALID,0,VALID,25.6876,VALID,282,VALID,0.446875,
2012-04-12, 01:40:05,VALID,1003.42,VALID,0,VALID,81.0034,VALID,0,VALID,25.7265,VALID,294,VALID,1.11328,
2012-04-12, 01:41:05,VALID,1003.37,VALID,0,VALID,80.3169,VALID,0.0815089,VALID,25.7655,VALID,297,VALID,1.18164,
2012-04-12, 01:42:05,VALID,1003.3,VALID,0,VALID,79.7447,VALID,0,VALID,25.8239,VALID,283,VALID,0.798047,
2012-04-12, 01:43:05,VALID,1003.33,VALID,0,VALID,79.5158,VALID,0,VALID,25.9038,VALID,291,VALID,0.959375,
2012-04-12, 01:44:05,VALID,1003.28,VALID,0,VALID,79.0581,VALID,0,VALID,25.9018,VALID,297,VALID,0.913281,
2012-04-12, 01:45:05,VALID,1003.31,VALID,0,VALID,79.2564,VALID,0.0815089,VALID,25.9018,VALID,295,VALID,1.87461,
2012-04-12, 01:46:05,VALID,1003.25,VALID,0,VALID,79.203,VALID,0.0815089,VALID,25.9408,VALID,292,VALID,0.247266,
2012-04-12, 01:47:05,VALID,1003.27,VALID,0,VALID,79.4319,VALID,0,VALID,25.9408,VALID,278,VALID,1.45039,
2012-04-12, 01:48:05,VALID,1003.26,VALID,0,VALID,79.5921,VALID,0.0815089,VALID,25.9408,VALID,301,VALID,0.483594,
2012-04-12, 01:49:05,VALID,1003.2,VALID,0,VALID,79.8362,VALID,0,VALID,25.9408,VALID,268,VALID,1.88828,
2012-04-12, 01:50:05,VALID,1003.2,VALID,0,VALID,79.9888,VALID,0.0815089,VALID,25.9213,VALID,302,VALID,0.729297,
2012-04-12, 01:51:05,VALID,1003.18,VALID,0,VALID,79.9736,VALID,0,VALID,25.9018,VALID,287,VALID,1.87188,
2012-04-12, 01:52:05,VALID,1003.18,VALID,0,VALID,80.294,VALID,0.0815089,VALID,25.8823,VALID,301,VALID,0.557422,
2012-04-12, 01:53:05,VALID,1003.18,VALID,0,VALID,80.6068,VALID,0,VALID,25.8629,VALID,297,VALID,1.41602,
2012-04-12, 01:54:05,VALID,1003.19,VALID,0,VALID,80.7212,VALID,0,VALID,25.8434,VALID,313,VALID,0.864844,
2012-04-12, 01:55:05,VALID,1003.15,VALID,0,VALID,81.3086,VALID,0,VALID,25.8044,VALID,287,VALID,1.2543,
2012-04-12, 01:56:05,VALID,1003.16,VALID,0,VALID,81.4154,VALID,0,VALID,25.785,VALID,283,VALID,0.38125,
2012-04-12, 01:57:05,VALID,1003.17,VALID,0,VALID,81.507,VALID,0.0815089,VALID,25.744,VALID,352,VALID,0.374609,
2012-04-12, 01:58:05,VALID,1003.12,VALID,0,VALID,81.7435,VALID,0.0815089,VALID,25.7265,VALID,351,VALID,0,
2012-04-12, 01:59:05,VALID,1003.11,VALID,0,VALID,81.774,VALID,0.0815089,VALID,25.6681,VALID,351,VALID,0.00820312,
2012-04-12, 02:00:05,VALID,1003.1,VALID,0,VALID,82.0486,VALID,0,VALID,25.6486,VALID,351,VALID,0.375781,
2012-04-12, 02:01:05,VALID,1003.1,VALID,0,VALID,82.2164,VALID,0.0815089,VALID,25.6097,VALID,351,VALID,0.303125,
2012-04-12, 02:02:05,VALID,1003.09,VALID,0,VALID,82.4377,VALID,0.0815089,VALID,25.5902,VALID,351,VALID,0.00585938,
2012-04-12, 02:03:05,VALID,1003.09,VALID,0,VALID,82.4301,VALID,0.0815089,VALID,25.5318,VALID,351,VALID,0.0652344,
2012-04-12, 02:04:05,VALID,1003.1,VALID,0,VALID,82.5903,VALID,0,VALID,25.5123,VALID,351,VALID,0,
2012-04-12, 02:05:05,VALID,1003.1,VALID,0,VALID,82.781,VALID,0.0815089,VALID,25.4734,VALID,351,VALID,0,
2012-04-12, 02:06:05,VALID,1003.11,VALID,0,VALID,83.0709,VALID,0.0815089,VALID,25.4344,VALID,351,VALID,0.341797,
2012-04-12, 02:07:05,VALID,1003.13,VALID,0,VALID,83.3303,VALID,0,VALID,25.4558,VALID,351,VALID,0.00507812,
2012-04-12, 02:08:05,VALID,1003.06,VALID,0,VALID,82.5369,VALID,0,VALID,25.3955,VALID,342,VALID,0.130078,
2012-04-12, 02:09:05,VALID,1003.03,VALID,0,VALID,80.6754,VALID,0,VALID,25.3779,VALID,248,VALID,0.604297,
2012-04-12, 02:10:05,VALID,1003.02,VALID,0,VALID,80.1338,VALID,0,VALID,25.4149,VALID,277,VALID,0.830859,
2012-04-12, 02:11:04,VALID,1003.01,VALID,0,VALID,79.3022,VALID,0,VALID,25.4734,VALID,346,VALID,0.298828,
2012-04-12, 02:12:04,VALID,1003,VALID,0,VALID,78.9208,VALID,0,VALID,25.4928,VALID,215,VALID,0.669531,
2012-04-12, 02:13:04,VALID,1003.02,VALID,0,VALID,77.6086,VALID,0,VALID,25.4928,VALID,206,VALID,0.861328,
2012-04-12, 02:14:04,VALID,1003.01,VALID,0,VALID,77.662,VALID,0.0815089,VALID,25.5142,VALID,214,VALID,0.112891,
2012-04-12, 02:15:04,VALID,1003.01,VALID,0,VALID,77.9595,VALID,0,VALID,25.5142,VALID,214,VALID,0.252734,
2012-04-12, 02:16:04,VALID,1003.01,VALID,0,VALID,77.2806,VALID,0,VALID,25.4948,VALID,229,VALID,0.905078,
2012-04-12, 02:17:04,VALID,1003.01,VALID,0,VALID,77.3492,VALID,0,VALID,25.4948,VALID,229,VALID,0.371484,
2012-04-12, 02:18:04,VALID,1003,VALID,0,VALID,77.334,VALID,0,VALID,25.4734,VALID,229,VALID,0.203125,
2012-04-12, 02:19:04,VALID,1003.01,VALID,0,VALID,77.4179,VALID,0,VALID,25.4539,VALID,229,VALID,0.126172,
2012-04-12, 02:20:04,VALID,1002.98,VALID,0,VALID,77.6467,VALID,0,VALID,25.4753,VALID,232,VALID,0.30625,
2012-04-12, 02:21:04,VALID,1003.02,VALID,0,VALID,77.7459,VALID,0,VALID,25.4363,VALID,320,VALID,0.605859,
2012-04-12, 02:22:04,VALID,1003,VALID,0,VALID,77.6773,VALID,0,VALID,25.3974,VALID,343,VALID,0.173828,
2012-04-12, 02:23:04,VALID,1002.99,VALID,0,VALID,77.3263,VALID,0,VALID,25.3176,VALID,339,VALID,0.533984,
2012-04-12, 02:24:04,VALID,1002.98,VALID,0,VALID,78.2571,VALID,0,VALID,25.3195,VALID,340,VALID,0.622266,
2012-04-12, 02:25:04,VALID,1002.99,VALID,0,VALID,78.5927,VALID,0,VALID,25.2592,VALID,340,VALID,0.344922,
2012-04-12, 02:26:04,VALID,1002.96,VALID,0,VALID,78.4096,VALID,0,VALID,25.2027,VALID,340,VALID,0.168359,
2012-04-12, 02:27:04,VALID,1002.99,VALID,0,VALID,78.8063,VALID,0,VALID,25.1618,VALID,340,VALID,0.0714844,
2012-04-12, 02:28:04,VALID,1002.99,VALID,0,VALID,79.287,VALID,0,VALID,25.1034,VALID,215,VALID,0.323438,
2012-04-12, 02:29:04,VALID,1002.99,VALID,0,VALID,78.4325,VALID,0,VALID,25.0663,VALID,277,VALID,0.616797,
2012-04-12, 02:30:04,VALID,1002.98,VALID,0,VALID,78.6385,VALID,0,VALID,25.1053,VALID,288,VALID,0.370703,
2012-04-12, 02:31:04,VALID,1003,VALID,0,VALID,78.2952,VALID,0,VALID,25.1034,VALID,288,VALID,0.247266,
2012-04-12, 02:32:04,VALID,1002.95,VALID,0,VALID,78.5546,VALID,0,VALID,25.1229,VALID,288,VALID,0,
2012-04-12, 02:33:04,VALID,1002.93,VALID,0,VALID,78.7682,VALID,0.0815089,VALID,25.1034,VALID,288,VALID,0.221094,
2012-04-12, 02:34:04,VALID,1002.91,VALID,0,VALID,79.615,VALID,0,VALID,25.0644,VALID,288,VALID,0.0242187,
2012-04-12, 02:35:04,VALID,1002.87,VALID,0,VALID,80.2024,VALID,0,VALID,24.9866,VALID,288,VALID,0.247266,
2012-04-12, 02:36:04,VALID,1002.87,VALID,0,VALID,80.6144,VALID,0,VALID,24.8911,VALID,312,VALID,0.6375,
2012-04-12, 02:37:04,VALID,1002.91,VALID,0,VALID,80.9272,VALID,0,VALID,24.7724,VALID,313,VALID,0.534766,
2012-04-12, 02:38:04,VALID,1002.9,VALID,0,VALID,81.5451,VALID,0,VALID,24.714,VALID,313,VALID,0.360156,
2012-04-12, 02:39:04,VALID,1002.9,VALID,0,VALID,82.2164,VALID,0,VALID,24.6556,VALID,313,VALID,0,
2012-04-12, 02:40:04,VALID,1002.9,VALID,0,VALID,82.6818,VALID,0,VALID,24.5972,VALID,313,VALID,0.003125,
2012-04-12, 02:41:04,VALID,1002.88,VALID,0,VALID,83.1701,VALID,0,VALID,24.5406,VALID,313,VALID,0,
2012-04-12, 02:42:04,VALID,1002.87,VALID,0,VALID,83.8567,VALID,0,VALID,24.4609,VALID,313,VALID,0.267188,
2012-04-12, 02:43:04,VALID,1002.85,VALID,0,VALID,84.1694,VALID,0,VALID,24.3654,VALID,313,VALID,0.153516,
2012-04-12, 02:44:04,VALID,1002.84,VALID,0,VALID,84.8179,VALID,0,VALID,24.307,VALID,313,VALID,0.374609,
2012-04-12, 02:45:04,VALID,1002.81,VALID,0,VALID,85.3138,VALID,0,VALID,24.1902,VALID,313,VALID,0.311719,
2012-04-12, 02:46:04,VALID,1002.77,VALID,0,VALID,85.6494,VALID,0,VALID,24.1105,VALID,313,VALID,0.114453,
2012-04-12, 02:47:04,VALID,1002.76,VALID,0,VALID,85.0544,VALID,0,VALID,24.0716,VALID,313,VALID,0.253906,
2012-04-12, 02:48:04,VALID,1002.75,VALID,0,VALID,85.9317,VALID,0,VALID,24.0929,VALID,313,VALID,0.442969,
2012-04-12, 02:49:04,VALID,1002.75,VALID,0,VALID,86.3132,VALID,0,VALID,24.0345,VALID,313,VALID,0.555859,
2012-04-12, 02:50:04,VALID,1002.73,VALID,0,VALID,86.6793,VALID,0,VALID,23.9548,VALID,313,VALID,0.443359,
2012-04-12, 02:51:04,VALID,1002.68,VALID,0,VALID,86.9311,VALID,0,VALID,23.9177,VALID,313,VALID,0.200391,
2012-04-12, 02:52:04,VALID,1002.66,VALID,0,VALID,87.4117,VALID,0,VALID,23.8982,VALID,313,VALID,0.320703,
2012-04-12, 02:53:04,VALID,1002.64,VALID,0,VALID,87.6024,VALID,0,VALID,23.8398,VALID,313,VALID,0.549219,
2012-04-12, 02:54:04,VALID,1002.65,VALID,0,VALID,87.9762,VALID,0,VALID,23.8009,VALID,313,VALID,0.488672,
2012-04-12, 02:55:04,VALID,1002.65,VALID,0,VALID,88.3958,VALID,0,VALID,23.7425,VALID,313,VALID,0.391797,
2012-04-12, 02:56:04,VALID,1002.64,VALID,0,VALID,88.8841,VALID,0,VALID,23.7035,VALID,313,VALID,0.429297,
2012-04-12, 02:57:04,VALID,1002.65,VALID,0,VALID,89.1511,VALID,0,VALID,23.6646,VALID,313,VALID,0.452344,
2012-04-12, 02:58:04,VALID,1002.67,VALID,0,VALID,89.2808,VALID,0,VALID,23.6257,VALID,313,VALID,0.436328,
2012-04-12, 02:59:04,VALID,1002.68,VALID,0,VALID,89.4257,VALID,0,VALID,23.5868,VALID,313,VALID,0.378125,
2012-04-12, 03:00:04,VALID,1002.67,VALID,0,VALID,89.7538,VALID,0,VALID,23.5478,VALID,313,VALID,0.519141,
2012-04-12, 03:01:04,VALID,1002.66,VALID,0,VALID,89.8682,VALID,0,VALID,23.4877,VALID,313,VALID,0.461719,
2012-04-12, 03:02:04,VALID,1002.65,VALID,0,VALID,90.0742,VALID,0,VALID,23.5089,VALID,313,VALID,0.0433594,
2012-04-12, 03:03:04,VALID,1002.62,VALID,0,VALID,90.242,VALID,0,VALID,23.47,VALID,313,VALID,0.125,
2012-04-12, 03:04:04,VALID,1002.59,VALID,0,VALID,90.3259,VALID,0,VALID,23.4293,VALID,313,VALID,0,
2012-04-12, 03:05:04,VALID,1002.57,VALID,0,VALID,90.4022,VALID,0,VALID,23.4505,VALID,313,VALID,0,
2012-04-12, 03:06:04,VALID,1002.54,VALID,0,VALID,90.4938,VALID,0,VALID,23.4718,VALID,313,VALID,0.165625,
2012-04-12, 03:07:04,VALID,1002.53,VALID,0,VALID,90.509,VALID,0,VALID,23.4311,VALID,313,VALID,0.404297,
2012-04-12, 03:08:04,VALID,1002.51,VALID,0,VALID,90.6006,VALID,0,VALID,23.4523,VALID,313,VALID,0.436719,
2012-04-12, 03:09:04,VALID,1002.53,VALID,0,VALID,90.5548,VALID,0,VALID,23.4116,VALID,313,VALID,0.569531,
2012-04-12, 03:10:04,VALID,1002.52,VALID,0,VALID,90.4175,VALID,0,VALID,23.4311,VALID,313,VALID,0.198437,
2012-04-12, 03:11:04,VALID,1002.53,VALID,0,VALID,90.2115,VALID,0,VALID,23.4311,VALID,313,VALID,0,
2012-04-12, 03:12:04,VALID,1002.59,VALID,0,VALID,90.1734,VALID,0,VALID,23.4311,VALID,313,VALID,0,
2012-04-12, 03:13:04,VALID,1002.59,VALID,0,VALID,90.1581,VALID,0,VALID,23.4293,VALID,313,VALID,0.230469,
2012-04-12, 03:14:04,VALID,1002.6,VALID,0,VALID,90.0971,VALID,0,VALID,23.4311,VALID,313,VALID,0.160938,
2012-04-12, 03:15:04,VALID,1002.59,VALID,0,VALID,90.242,VALID,0,VALID,23.4098,VALID,313,VALID,0.474609,
2012-04-12, 03:16:04,VALID,1002.57,VALID,0,VALID,90.2039,VALID,0,VALID,23.4116,VALID,313,VALID,0,
2012-04-12, 03:17:04,VALID,1002.57,VALID,0,VALID,90.2954,VALID,0,VALID,23.3709,VALID,313,VALID,0.340625,
2012-04-12, 03:18:04,VALID,1002.56,VALID,0,VALID,90.2802,VALID,0,VALID,23.3921,VALID,313,VALID,0.00742187,
2012-04-12, 03:19:04,VALID,1002.56,VALID,0,VALID,90.3259,VALID,0,VALID,23.3921,VALID,313,VALID,0,
2012-04-12, 03:20:04,VALID,1002.54,VALID,0,VALID,90.3717,VALID,0,VALID,23.3921,VALID,313,VALID,0.121484,
2012-04-12, 03:21:04,VALID,1002.51,VALID,0,VALID,90.3488,VALID,0,VALID,23.3727,VALID,313,VALID,0.209375,
2012-04-12, 03:22:04,VALID,1002.5,VALID,0,VALID,90.3717,VALID,0,VALID,23.3727,VALID,313,VALID,0.332422,
2012-04-12, 03:23:04,VALID,1002.49,VALID,0,VALID,90.2878,VALID,0,VALID,23.3337,VALID,313,VALID,0.387891,
2012-04-12, 03:24:04,VALID,1002.47,VALID,0,VALID,90.3107,VALID,0,VALID,23.3125,VALID,313,VALID,0.214062,
2012-04-12, 03:25:04,VALID,1002.47,VALID,0,VALID,90.3717,VALID,0,VALID,23.3532,VALID,313,VALID,0,
2012-04-12, 03:26:04,VALID,1002.44,VALID,0,VALID,90.4327,VALID,0,VALID,23.3532,VALID,313,VALID,0.0046875,
2012-04-12, 03:27:04,VALID,1002.46,VALID,0,VALID,90.4251,VALID,0,VALID,23.3532,VALID,313,VALID,0.245703,
2012-04-12, 03:28:04,VALID,1002.44,VALID,0,VALID,90.593,VALID,0,VALID,23.3337,VALID,313,VALID,0.122656,
2012-04-12, 03:29:04,VALID,1002.45,VALID,0,VALID,90.6158,VALID,0,VALID,23.3125,VALID,313,VALID,0.0925781,
2012-04-12, 03:30:04,VALID,1002.45,VALID,0,VALID,90.7074,VALID,0,VALID,23.3337,VALID,313,VALID,0.167969,
2012-04-12, 03:31:04,VALID,1002.45,VALID,0,VALID,90.8066,VALID,0,VALID,23.3125,VALID,313,VALID,0,
2012-04-12, 03:32:04,VALID,1002.44,VALID,0,VALID,90.7837,VALID,0,VALID,23.3143,VALID,313,VALID,0.0742188,
2012-04-12, 03:33:04,VALID,1002.47,VALID,0,VALID,90.7837,VALID,0,VALID,23.3143,VALID,313,VALID,0.424219,
2012-04-12, 03:34:04,VALID,1002.44,VALID,0,VALID,90.7532,VALID,0,VALID,23.2931,VALID,327,VALID,0.619531,
2012-04-12, 03:35:04,VALID,1002.44,VALID,0,VALID,90.6387,VALID,0,VALID,23.2931,VALID,339,VALID,0.497266,
2012-04-12, 03:36:04,VALID,1002.44,VALID,0,VALID,90.4862,VALID,0,VALID,23.3337,VALID,339,VALID,0.48125,
2012-04-12, 03:37:04,VALID,1002.43,VALID,0,VALID,90.2878,VALID,0,VALID,23.3727,VALID,339,VALID,0.0902344,
2012-04-12, 03:38:04,VALID,1002.42,VALID,0,VALID,90.2191,VALID,0,VALID,23.4116,VALID,339,VALID,0,
2012-04-12, 03:39:04,VALID,1002.47,VALID,0,VALID,90.1886,VALID,0,VALID,23.3904,VALID,339,VALID,0,
2012-04-12, 03:40:04,VALID,1002.44,VALID,0,VALID,90.1963,VALID,0,VALID,23.4116,VALID,339,VALID,0.0894531,
2012-04-12, 03:41:04,VALID,1002.44,VALID,0,VALID,90.1963,VALID,0,VALID,23.4116,VALID,339,VALID,0.0609375,
2012-04-12, 03:42:04,VALID,1002.44,VALID,0,VALID,90.1963,VALID,0,VALID,23.4116,VALID,339,VALID,0.239453,
2012-04-12, 03:43:04,VALID,1002.48,VALID,0,VALID,90.1734,VALID,0,VALID,23.3709,VALID,339,VALID,0.0425781,
2012-04-12, 03:44:04,VALID,1002.48,VALID,0,VALID,90.2268,VALID,0,VALID,23.3514,VALID,339,VALID,0.426953,
2012-04-12, 03:45:04,VALID,1002.5,VALID,0,VALID,90.3031,VALID,0,VALID,23.3532,VALID,339,VALID,0.382813,